Weather History for Philip, SD

Change the Weather History Date:

Friday, November 23, 2012

  Actual Average Record
Temperature  
Mean Temperature 23 °F 30 °F  
Max Temperature 37 °F 43 °F 66 °F (1984)
Min Temperature 8 °F 17 °F -16 °F (2010)
Degree Days  
Heating Degree Days 42 35  
Month to date heating degree days 612 673  
Since 1 July heating degree days 1239 1376  
Cooling Degree Days 0 0  
Month to date cooling degree days 0 0  
Year to date cooling degree days 1202 818  
Moisture  
Dew Point 12 °F    
Average Humidity 64    
Maximum Humidity 84    
Minimum Humidity 44    
Precipitation  
Precipitation 0.00 in 0.01 in 0.85 in (2010)
Month to date precipitation 0.15 0.52  
Year to date precipitation 6.95 16.82  
Sea Level Pressure  
Sea Level Pressure 30.48 in    
Wind  
Wind Speed 7 mph (WNW)    
Max Wind Speed 18 mph    
Max Gust Speed 22 mph    
Visibility 10 miles    
Events      
T = Trace of Precipitation, MM = Missing Value Source: NWS Daily Summary

Daily Weather History Graph

Daily Weather History Graph

Search for Another Location

Airport:

Trip Planner

Search our weather history database for the weather conditions in past years. The results will help you decide how hot, cold, wet, or windy it might be!

Date:

Astronomy

Nov. 23, 2012 Rise Set
Actual Time 6:52 AM MST 4:13 PM MST
Civil Twilight 6:20 AM MST 4:45 PM MST
Nautical Twilight 5:44 AM MST 5:20 PM MST
Astronomical Twilight 5:10 AM MST 5:55 PM MST
Moon 1:36 PM MST 2:05 AM MST
Length of Visible Light 10h 24m
Length of Day
9h 20m
Waxing Gibbous, 80% of the Moon is Illuminated
Nov 23
Waxing Gibbous
Nov 28
Full
Dec 6
Last Quarter
Dec 13
New
Dec 19
First Quarter

Hourly Weather History & Observations

Time (MST) Temp. Windchill Dew Point Humidity Pressure Visibility Wind Dir Wind Speed Gust Speed Precip Events Conditions
12:55 AM 17.1 °F 2.5 °F 9.0 °F 71% 30.58 in 10.0 mi NW 15.0 mph - N/A   Clear
1:55 AM 16.0 °F 3.6 °F 9.0 °F 74% 30.59 in 10.0 mi NW 10.4 mph - N/A   Clear
2:55 AM 14.0 °F 2.0 °F 8.1 °F 77% 30.59 in 10.0 mi WNW 9.2 mph - N/A   Clear
3:55 AM 12.9 °F 3.8 °F 8.1 °F 81% 30.59 in 10.0 mi West 5.8 mph - N/A   Clear
4:55 AM 10.9 °F 1.4 °F 7.0 °F 84% 30.59 in 10.0 mi NW 5.8 mph - N/A   Clear
5:55 AM 10.0 °F 3.6 °F 6.1 °F 84% 30.63 in 10.0 mi WNW 3.5 mph - N/A   Clear
6:55 AM 10.0 °F 3.6 °F 6.1 °F 84% 30.64 in 10.0 mi WNW 3.5 mph - N/A   Clear
7:55 AM 14.0 °F 8.2 °F 9.0 °F 80% 30.64 in 10.0 mi SW 3.5 mph - N/A   Clear
8:55 AM 19.9 °F 12.1 °F 12.0 °F 71% 30.63 in 10.0 mi WSW 5.8 mph - N/A   Clear
9:55 AM 25.0 °F 17.1 °F 12.0 °F 58% 30.63 in 10.0 mi West 6.9 mph - N/A   Clear
10:55 AM 27.0 °F 21.6 °F 12.0 °F 53% 30.59 in 10.0 mi Variable 4.6 mph - N/A   Clear
11:55 AM 30.0 °F 24.1 °F 12.9 °F 49% 30.54 in 10.0 mi WSW 5.8 mph - N/A   Clear
12:55 PM 33.1 °F 30.0 °F 15.1 °F 48% 30.49 in 10.0 mi WSW 3.5 mph - N/A   Clear
1:55 PM 35.1 °F - 16.0 °F 46% 30.45 in 10.0 mi Calm Calm - N/A   Clear
2:55 PM 36.0 °F 33.3 °F 17.1 °F 46% 30.44 in 10.0 mi South 3.5 mph - N/A   Clear
3:55 PM 33.1 °F 28.7 °F 17.1 °F 52% 30.44 in 10.0 mi SSE 4.6 mph - N/A   Clear
4:55 PM 26.1 °F 16.8 °F 15.1 °F 63% 30.42 in 10.0 mi East 9.2 mph - N/A   Clear
5:55 PM 23.0 °F 15.8 °F 14.0 °F 68% 30.40 in 10.0 mi East 5.8 mph - N/A   Clear
6:55 PM 24.1 °F 14.4 °F 15.1 °F 69% 30.36 in 10.0 mi East 9.2 mph - N/A   Clear
7:55 PM 26.1 °F 16.8 °F 15.1 °F 63% 30.34 in 10.0 mi East 9.2 mph - N/A   Clear
8:55 PM 24.1 °F 16.0 °F 15.1 °F 69% 30.29 in 10.0 mi ENE 6.9 mph - N/A   Clear
9:55 PM 26.1 °F 16.8 °F 15.1 °F 63% 30.23 in 10.0 mi East 9.2 mph - N/A   Clear
10:55 PM 26.1 °F 16.8 °F 16.0 °F 66% 30.20 in 10.0 mi East 9.2 mph - N/A   Clear
11:55 PM 25.0 °F 15.5 °F 16.0 °F 69% 30.16 in 10.0 mi ENE 9.2 mph - N/A   Clear